Private Wetterstation Wechselburg
Wetterdaten: Mittwoch, 02.11.2011
Datum Zeit Temp. +2m Bodentemp. Temp.+5cm Temp. Wind Windchill X Diff Temp. Feuchte +2m Feuchte +5cm Sonnenschein Luftdruck Regen Wind Richtung Richtung Sonnenschein UV Taupunkt Windchill Windben
02.11.2011 00:00 2,8 C 14,5 C 3,7 C 2,6 C 2,1 C 0,0 C 91 % 91 % 0 % 1019,3 hPa 0,0 l/m 0,0 km/h (0 Bft) W 270 0 min 0,0 UV-I 1,5 C 2,1 C 0,0 km/h (0 Bft)
02.11.2011 00:10 2,7 C 14,5 C 3,7 C 2,5 C 2,0 C 0,0 C 91 % 92 % 0 % 1019,3 hPa 0,0 l/m 0,0 km/h (0 Bft) - - 0 0 min 0,0 UV-I 1,4 C 2,0 C 0,0 km/h (0 Bft)
02.11.2011 00:20 2,7 C 14,5 C 3,7 C 2,5 C 2,0 C 0,0 C 91 % 92 % 0 % 1020,0 hPa 0,0 l/m 0,0 km/h (0 Bft) W-SW 247 0 min 0,0 UV-I 1,4 C 2,0 C 0,0 km/h (0 Bft)
02.11.2011 00:25 2,6 C 14,5 C 3,6 C 2,4 C 2,0 C 0,0 C 91 % 91 % 0 % 1020,0 hPa 0,0 l/m 0,0 km/h (0 Bft) W-SW 247 0 min 0,0 UV-I 1,3 C 2,0 C 0,0 km/h (0 Bft)
02.11.2011 00:30 2,6 C 14,5 C 3,6 C 2,4 C 2,1 C 0,0 C 91 % 91 % 0 % 1020,0 hPa 0,0 l/m 0,0 km/h (0 Bft) N-NW 337 0 min 0,0 UV-I 1,3 C 2,1 C 0,0 km/h (0 Bft)
02.11.2011 00:35 2,5 C 14,5 C 3,5 C 2,3 C 2,0 C 0,0 C 92 % 92 % 0 % 1020,0 hPa 0,0 l/m 0,0 km/h (0 Bft) NW 315 0 min 0,0 UV-I 1,3 C 2,0 C 0,0 km/h (0 Bft)
02.11.2011 00:40 2,6 C 14,5 C 3,6 C 2,4 C 1,9 C 0,0 C 92 % 92 % 0 % 1019,8 hPa 0,0 l/m 0,0 km/h (0 Bft) NW 315 0 min 0,0 UV-I 1,4 C 1,9 C 0,0 km/h (0 Bft)
02.11.2011 00:45 2,5 C 14,4 C 3,8 C 2,3 C 2,0 C 0,0 C 92 % 92 % 0 % 1019,8 hPa 0,0 l/m 0,0 km/h (0 Bft) NW 315 0 min 0,0 UV-I 1,3 C 2,0 C 0,0 km/h (0 Bft)
02.11.2011 00:50 2,5 C 14,4 C 3,6 C 2,4 C 2,2 C 0,0 C 92 % 92 % 0 % 1019,8 hPa 0,0 l/m 0,0 km/h (0 Bft) O-NO 67 0 min 0,0 UV-I 1,3 C 2,2 C 0,0 km/h (0 Bft)
02.11.2011 00:55 2,7 C 14,4 C 3,5 C 2,6 C 2,3 C 0,0 C 92 % 92 % 0 % 1019,8 hPa 0,0 l/m 0,0 km/h (0 Bft) O-NO 67 0 min 0,0 UV-I 1,5 C 2,3 C 0,0 km/h (0 Bft)
02.11.2011 01:00 2,6 C 14,4 C 3,5 C 2,5 C 2,3 C 0,0 C 92 % 92 % 0 % 1019,8 hPa 0,0 l/m 0,0 km/h (0 Bft) O-NO 67 0 min 0,0 UV-I 1,4 C 2,3 C 0,0 km/h (0 Bft)
02.11.2011 01:13 2,7 C 14,4 C 3,4 C 2,6 C 2,3 C 0,0 C 92 % 92 % 0 % 1019,8 hPa 0,0 l/m 0,0 km/h (0 Bft) - - 0 0 min 0,0 UV-I 1,5 C 2,3 C 0,0 km/h (0 Bft)
02.11.2011 01:20 2,5 C 14,4 C 3,5 C 2,3 C 1,8 C 0,0 C 92 % 92 % 0 % 1019,6 hPa 0,0 l/m 0,0 km/h (0 Bft) W 270 0 min 0,0 UV-I 1,3 C 1,8 C 0,0 km/h (0 Bft)
02.11.2011 01:25 2,4 C 14,3 C 3,4 C 2,1 C 1,6 C 0,0 C 92 % 92 % 0 % 1019,6 hPa 0,0 l/m 0,0 km/h (0 Bft) W-SW 247 0 min 0,0 UV-I 1,2 C 1,6 C 0,0 km/h (0 Bft)
02.11.2011 01:30 2,3 C 14,4 C 3,3 C 2,1 C 1,6 C 0,0 C 92 % 92 % 0 % 1019,6 hPa 0,0 l/m 0,0 km/h (0 Bft) W-NW 292 0 min 0,0 UV-I 1,1 C 1,6 C 0,0 km/h (0 Bft)
02.11.2011 01:35 2,3 C 14,3 C 3,2 C 2,0 C 1,5 C 0,0 C 92 % 91 % 0 % 1019,6 hPa 0,0 l/m 0,0 km/h (0 Bft) W 270 0 min 0,0 UV-I 1,1 C 1,5 C 0,0 km/h (0 Bft)
02.11.2011 01:40 2,3 C 14,3 C 3,2 C 2,0 C 1,5 C 0,0 C 92 % 91 % 0 % 1019,8 hPa 0,0 l/m 0,0 km/h (0 Bft) W-SW 247 0 min 0,0 UV-I 1,1 C 1,5 C 0,0 km/h (0 Bft)
02.11.2011 01:45 2,1 C 14,3 C 3,1 C 1,9 C 1,4 C 0,0 C 92 % 91 % 0 % 1019,8 hPa 0,0 l/m 0,0 km/h (0 Bft) W-SW 247 0 min 0,0 UV-I 0,9 C 1,4 C 0,0 km/h (0 Bft)
02.11.2011 01:50 2,1 C 14,3 C 3,1 C 1,9 C 1,5 C 0,0 C 92 % 91 % 0 % 1019,8 hPa 0,0 l/m 0,0 km/h (0 Bft) W-SW 247 0 min 0,0 UV-I 0,9 C 1,5 C 0,0 km/h (0 Bft)
02.11.2011 01:55 2,1 C 14,3 C 3,1 C 1,9 C 1,5 C 0,0 C 92 % 91 % 0 % 1019,8 hPa 0,0 l/m 0,0 km/h (0 Bft) W-SW 247 0 min 0,0 UV-I 0,9 C 1,5 C 0,0 km/h (0 Bft)
02.11.2011 02:00 2,1 C 14,3 C 3,0 C 1,9 C 1,5 C 0,0 C 92 % 91 % 0 % 1019,7 hPa 0,0 l/m 0,0 km/h (0 Bft) W-SW 247 0 min 0,0 UV-I 0,9 C 1,5 C 0,0 km/h (0 Bft)
02.11.2011 02:10 2,1 C 14,3 C 3,1 C 1,9 C 1,5 C 0,0 C 92 % 91 % 0 % 1019,7 hPa 0,0 l/m 0,0 km/h (0 Bft) - - 0 0 min 0,0 UV-I 0,9 C 1,5 C 0,0 km/h (0 Bft)
02.11.2011 02:20 2,0 C 14,3 C 3,0 C 1,7 C 1,2 C 0,0 C 92 % 91 % 0 % 1019,9 hPa 0,0 l/m 0,0 km/h (0 Bft) W-SW 247 0 min 0,0 UV-I 0,8 C 1,2 C 0,0 km/h (0 Bft)
02.11.2011 02:25 2,0 C 14,2 C 2,9 C 1,8 C 1,3 C 0,0 C 92 % 91 % 0 % 1019,9 hPa 0,0 l/m 0,0 km/h (0 Bft) W-SW 247 0 min 0,0 UV-I 0,8 C 1,3 C 0,0 km/h (0 Bft)
02.11.2011 02:30 2,0 C 14,2 C 2,8 C 1,8 C 1,3 C 0,0 C 92 % 91 % 0 % 1019,9 hPa 0,0 l/m 0,0 km/h (0 Bft) W-SW 247 0 min 0,0 UV-I 0,8 C 1,3 C 0,0 km/h (0 Bft)
02.11.2011 02:35 2,0 C 14,2 C 2,8 C 1,8 C 1,4 C 0,0 C 92 % 91 % 0 % 1019,9 hPa 0,0 l/m 0,0 km/h (0 Bft) SO 135 0 min 0,0 UV-I 0,8 C 1,4 C 0,0 km/h (0 Bft)
02.11.2011 02:40 2,0 C 14,2 C 2,8 C 1,8 C 1,5 C 0,0 C 92 % 91 % 0 % 1020,3 hPa 0,0 l/m 0,0 km/h (0 Bft) W-SW 247 0 min 0,0 UV-I 0,8 C 1,5 C 0,0 km/h (0 Bft)
02.11.2011 02:45 2,0 C 14,2 C 3,1 C 1,9 C 1,7 C 0,0 C 92 % 92 % 0 % 1020,3 hPa 0,0 l/m 0,0 km/h (0 Bft) SW 225 0 min 0,0 UV-I 0,8 C 1,7 C 0,0 km/h (0 Bft)
02.11.2011 02:50 2,0 C 14,2 C 3,1 C 1,9 C 1,7 C 0,0 C 92 % 92 % 0 % 1020,3 hPa 0,0 l/m 0,0 km/h (0 Bft) W-SW 247 0 min 0,0 UV-I 0,8 C 1,7 C 0,0 km/h (0 Bft)
02.11.2011 02:55 2,1 C 14,2 C 2,8 C 1,9 C 1,6 C 0,0 C 92 % 91 % 0 % 1020,3 hPa 0,0 l/m 0,0 km/h (0 Bft) O-SO 112 0 min 0,0 UV-I 0,9 C 1,6 C 0,0 km/h (0 Bft)
02.11.2011 03:00 2,1 C 14,2 C 2,7 C 1,9 C 1,5 C 0,0 C 92 % 91 % 0 % 1020,1 hPa 0,0 l/m 0,0 km/h (0 Bft) O-SO 112 0 min 0,0 UV-I 0,9 C 1,5 C 0,0 km/h (0 Bft)
02.11.2011 03:10 2,0 C 14,2 C 2,9 C 1,9 C 1,6 C 0,0 C 92 % 92 % 0 % 1020,1 hPa 0,0 l/m 0,0 km/h (0 Bft) - - 0 0 min 0,0 UV-I 0,8 C 1,6 C 0,0 km/h (0 Bft)
02.11.2011 03:20 2,0 C 14,2 C 3,0 C 1,8 C 1,5 C 0,0 C 92 % 92 % 0 % 1019,7 hPa 0,0 l/m 0,0 km/h (0 Bft) S-SO 157 0 min 0,0 UV-I 0,8 C 1,5 C 0,0 km/h (0 Bft)
02.11.2011 03:25 2,1 C 14,1 C 2,9 C 1,9 C 1,6 C 0,0 C 92 % 92 % 0 % 1019,7 hPa 0,0 l/m 0,0 km/h (0 Bft) S-SO 157 0 min 0,0 UV-I 0,9 C 1,6 C 0,0 km/h (0 Bft)
02.11.2011 03:30 2,0 C 14,1 C 2,8 C 1,8 C 1,5 C 0,0 C 92 % 92 % 0 % 1019,7 hPa 0,0 l/m 0,0 km/h (0 Bft) S-SO 157 0 min 0,0 UV-I 0,8 C 1,5 C 0,0 km/h (0 Bft)
02.11.2011 03:35 2,0 C 14,1 C 2,9 C 1,8 C 1,4 C 0,0 C 92 % 92 % 0 % 1019,7 hPa 0,0 l/m 0,0 km/h (0 Bft) W-SW 247 0 min 0,0 UV-I 0,8 C 1,4 C 0,0 km/h (0 Bft)
02.11.2011 03:40 2,0 C 14,1 C 2,9 C 1,8 C 1,4 C 0,0 C 92 % 92 % 0 % 1019,4 hPa 0,0 l/m 0,0 km/h (0 Bft) W-SW 247 0 min 0,0 UV-I 0,8 C 1,4 C 0,0 km/h (0 Bft)
02.11.2011 03:45 2,0 C 14,1 C 2,9 C 1,8 C 1,5 C 0,0 C 92 % 92 % 0 % 1019,4 hPa 0,0 l/m 0,0 km/h (0 Bft) W-SW 247 0 min 0,0 UV-I 0,8 C 1,5 C 0,0 km/h (0 Bft)
02.11.2011 03:50 1,9 C 14,1 C 2,8 C 1,7 C 1,4 C 0,0 C 92 % 92 % 0 % 1019,4 hPa 0,0 l/m 0,0 km/h (0 Bft) W-SW 247 0 min 0,0 UV-I 0,7 C 1,4 C 0,0 km/h (0 Bft)
02.11.2011 03:55 1,9 C 14,1 C 2,7 C 1,6 C 1,1 C 0,0 C 92 % 92 % 0 % 1019,4 hPa 0,0 l/m 0,0 km/h (0 Bft) SW 225 0 min 0,0 UV-I 0,7 C 1,1 C 0,0 km/h (0 Bft)
02.11.2011 04:00 1,9 C 14,1 C 2,7 C 1,6 C 1,1 C 0,0 C 92 % 92 % 0 % 1019,7 hPa 0,0 l/m 0,0 km/h (0 Bft) O-NO 67 0 min 0,0 UV-I 0,7 C 1,1 C 0,0 km/h (0 Bft)
02.11.2011 04:10 1,9 C 14,1 C 2,5 C 1,7 C 1,3 C 0,0 C 92 % 92 % 0 % 1019,7 hPa 0,0 l/m 0,0 km/h (0 Bft) - - 0 0 min 0,0 UV-I 0,7 C 1,3 C 0,0 km/h (0 Bft)
02.11.2011 04:20 1,9 C 14,0 C 2,7 C 1,7 C 1,2 C 0,0 C 92 % 92 % 0 % 1019,6 hPa 0,0 l/m 0,0 km/h (0 Bft) W-SW 247 0 min 0,0 UV-I 0,7 C 1,2 C 0,0 km/h (0 Bft)
02.11.2011 04:25 1,9 C 14,0 C 2,4 C 1,6 C 1,0 C 0,0 C 92 % 92 % 0 % 1019,6 hPa 0,0 l/m 0,0 km/h (0 Bft) W 270 0 min 0,0 UV-I 0,7 C 1,0 C 0,0 km/h (0 Bft)
02.11.2011 04:30 1,7 C 14,0 C 2,4 C 1,5 C 1,0 C 0,0 C 92 % 92 % 0 % 1019,6 hPa 0,0 l/m 0,0 km/h (0 Bft) W 270 0 min 0,0 UV-I 0,5 C 1,0 C 0,0 km/h (0 Bft)
02.11.2011 04:35 1,7 C 14,0 C 2,4 C 1,5 C 1,1 C 0,0 C 92 % 92 % 0 % 1019,6 hPa 0,0 l/m 0,0 km/h (0 Bft) W 270 0 min 0,0 UV-I 0,5 C 1,1 C 0,0 km/h (0 Bft)
02.11.2011 04:40 1,6 C 14,0 C 2,4 C 1,4 C 1,0 C 0,0 C 92 % 92 % 0 % 1019,5 hPa 0,0 l/m 0,0 km/h (0 Bft) W 270 0 min 0,0 UV-I 0,4 C 1,0 C 0,0 km/h (0 Bft)
02.11.2011 04:45 1,6 C 14,0 C 2,5 C 1,3 C 0,8 C 0,0 C 92 % 92 % 0 % 1019,5 hPa 0,0 l/m 0,0 km/h (0 Bft) W-SW 247 0 min 0,0 UV-I 0,4 C 0,8 C 0,0 km/h (0 Bft)
02.11.2011 04:50 1,5 C 14,0 C 2,4 C 1,2 C 0,6 C 0,0 C 92 % 92 % 0 % 1019,5 hPa 0,0 l/m 0,0 km/h (0 Bft) W-SW 247 0 min 0,0 UV-I 0,3 C 0,6 C 0,0 km/h (0 Bft)
02.11.2011 04:55 1,4 C 13,9 C 2,4 C 1,1 C 0,6 C 0,0 C 92 % 92 % 0 % 1019,5 hPa 0,0 l/m 0,0 km/h (0 Bft) W 270 0 min 0,0 UV-I 0,2 C 0,6 C 0,0 km/h (0 Bft)
02.11.2011 05:00 1,5 C 13,9 C 2,4 C 1,2 C 0,6 C 0,0 C 92 % 92 % 0 % 1019,5 hPa 0,0 l/m 0,0 km/h (0 Bft) NW 315 0 min 0,0 UV-I 0,3 C 0,6 C 0,0 km/h (0 Bft)
02.11.2011 05:11 1,3 C 13,9 C 2,4 C 1,1 C 0,6 C 0,0 C 92 % 92 % 0 % 1019,5 hPa 0,0 l/m 0,0 km/h (0 Bft) - - 0 0 min 0,0 UV-I 0,1 C 0,6 C 0,0 km/h (0 Bft)
02.11.2011 05:20 1,2 C 13,9 C 2,2 C 0,9 C 0,4 C 0,0 C 92 % 92 % 0 % 1019,7 hPa 0,0 l/m 0,0 km/h (0 Bft) W 270 0 min 0,0 UV-I 0,0 C 0,4 C 0,0 km/h (0 Bft)
02.11.2011 05:25 1,2 C 13,9 C 2,1 C 0,9 C 0,4 C 0,0 C 92 % 92 % 0 % 1019,7 hPa 0,0 l/m 0,0 km/h (0 Bft) _ 2318 0 min 0,0 UV-I 0,0 C 0,4 C 0,0 km/h (0 Bft)
02.11.2011 05:30 1,1 C 13,9 C 2,1 C 0,8 C 0,3 C 0,0 C 92 % 92 % 0 % 1019,7 hPa 0,0 l/m 0,0 km/h (0 Bft) W-SW 247 0 min 0,0 UV-I -0,1 C 0,3 C 0,0 km/h (0 Bft)
02.11.2011 05:35 1,0 C 13,9 C 2,3 C 0,8 C 0,4 C 0,0 C 92 % 92 % 0 % 1019,7 hPa 0,0 l/m 0,0 km/h (0 Bft) W-SW 247 0 min 0,0 UV-I -0,2 C 0,4 C 0,0 km/h (0 Bft)
02.11.2011 05:40 1,1 C 13,9 C 2,2 C 52,1 C 0,4 C 51,0 C 92 % 92 % 0 % 1019,9 hPa 0,0 l/m 0,0 km/h (0 Bft) W-SW 247 0 min 0,0 UV-I -0,1 C 0,4 C 0,0 km/h (0 Bft)
02.11.2011 05:45 0,9 C 13,9 C 2,3 C 0,7 C 0,4 C 0,0 C 92 % 92 % 0 % 1019,9 hPa 0,0 l/m 0,0 km/h (0 Bft) W-SW 247 0 min 0,0 UV-I -0,2 C 0,4 C 0,0 km/h (0 Bft)
_ Min-Zeit 05:45 04:55 05:25 05:45 05:30 00:00 00:00 00:00 00:00 00:00 - 00:00 - - - 00:00 05:45 05:30 00:00
Minimum _ 0,9 C 13,9 C 2,1 C 0,7 C 0,3 C 0,0 C 91 % 91 % 0 % 1019,3 hPa - 0,0 km/h (0 Bft) - - - 0,0 UV-I -0,2 C 0,3 C 0,0 km/h (0 Bft)
_ Max-Zeit 00:00 00:00 00:45 05:40 00:55 05:40 00:35 00:10 00:00 02:40 00:00 00:00 - - 00:00 00:00 00:55 00:55 00:00
Maximum _ 2,8 C 14,5 C 3,8 C 52,1 C 2,3 C 51,0 C 92 % 92 % 0 % 1020,3 hPa 0,0 l/m 0,0 km/h
W (0 Bft)
- - 0 min 0,0 UV-I 1,5 C 2,3 C 0,0 km/h
W (0 Bft)
Durchschnitt _ 2,0 C 14,2 C 2,9 C 2,5 C 1,4 C 0,7 C 92 % 92 % 0 % 1019,7 hPa #0,0 l/m 0,0 km/h (0 Bft) - - - #0 min. 0,0 UV-I 0,8 C 1,4 C 0,0 km/h (0 Bft)
2011 www.wetterstation-wechselburg.de